SL-16 DEB, 22375

Orbit data source: Space-Track

SL-16 DEB, 22375 is space debris in LEO originally from a launch on Fri, 25 Dec 1992 UTC launched from the Tyuratam Missile And Space Complex (TTMTR). Debris objects in space refer to the collection of defunct objects orbiting the Earth. Examples of debris include non-operational satellites, rocket bodies, and fragments generated from explosions, collisions, or faulty payload assembly.

Loading next visibility...
Identifier
22375, 1992-093BQ
Orbit
LEO
Country
Flag of CISCIS
Related business
Manufacturer
Unknown
Mission
Spacecraft
Bus & Motor
Unknown
Mass
Unknown
Launch date (UTC)
1992-12-25 (33 years ago)
Launch vehicle
Unknown
Launch site
Tyuratam Missile And Space Complex (TTMTR)
Object type
Payload
Rocket body
Debris
Shape & HBR
Unknown shape, 0.2 m
Radar Cross Section
Medium (>0.1 m² and <1 m²)

Expand to show TLE details & history
Last TLE update: 10 hours ago

TLE from 10 hours ago
0 SL-16 DEB
1 22375U 92093BQ  25352.87702304  .00000082  00000-0  83156-4 0  9997
2 22375  70.8140 159.2680 0091017 313.8448 197.0226 14.01506782683807
Epoch: 2025-12-18T21:02Z
TLE epoch observation values (Epoch: 2025-12-18T21:02:54.790Z)
Latitude
27.70413°
Longitude
-74.65918°
Altitude
954.742 km
Speed
7.345 km/s
True Right ascension
21h 55m 10s
True Declination
27° 33' 60"
Sunlit
Object was in daylight at epoch
Visualization orbit readout
Latitude
Unknown
Longitude
Unknown
Altitude
Unknown
Speed
Unknown
Apparent Right ascension
Unknown
Apparent Declination
Unknown
Sunlit
N/A
Visualization observer readout
Local Sidereal Time
05:47:45
Azimuth
Unknown
Elevation
Unknown
Doppler factor
Unknown
Orbital elements
Apogee altitude
952.659 km
Perigee altitude
820.417 km
Semi-major axis
7,264.675 km
Eccentricity
0.0091
Inclination
70.814°
RAAN
159.268°
Arg. of periapsis
313.8448°
True anomaly
196.72056°
Mean anomaly
197.0226°
Eccentric anomaly
196.87125°
Mean motion
3.50525 °/min
Orbital period
102.7 mins
BSTAR
0.000083156
Loading maneuver chart data...
Computing Atmospheric mass density...
Loading historical data...
Loading historical data...
Loading historical data...
Loading historical data...
Loading historical data...
Loading historical data...
Loading historical data...

Documentation

Showing up to 5 results
|